Time,TemperatureF,DewpointF,PressureIn,WindDirection,WindDirectionDegrees,WindSpeedMPH,WindSpeedGustMPH,Humidity,HourlyPrecipIn,Conditions,Clouds,dailyrainin,SoftwareType,DateUTC
2013-04-18 00:02:00,33.0,30.0,30.00,NNE,12,11.0,19.0,89,0.00,,,0.00,,2013-04-18 05:02:00,
2013-04-18 00:12:00,33.0,30.0,30.00,North,3,7.0,14.0,89,0.00,,,0.00,,2013-04-18 05:12:00,
2013-04-18 00:22:00,33.0,30.0,30.00,North,3,7.0,14.0,89,0.00,,,0.00,,2013-04-18 05:22:00,
2013-04-18 00:32:00,33.0,30.0,30.00,North,3,7.0,14.0,89,0.00,,,0.00,,2013-04-18 05:32:00,
2013-04-18 00:42:00,33.0,30.0,30.00,North,5,8.0,16.0,89,0.00,,,0.00,,2013-04-18 05:42:00,
2013-04-18 00:52:00,33.0,30.0,30.00,North,5,8.0,16.0,89,0.00,,,0.00,,2013-04-18 05:52:00,
2013-04-18 01:02:00,33.0,30.0,30.00,North,5,8.0,16.0,89,0.00,,,0.00,,2013-04-18 06:02:00,
2013-04-18 01:12:00,33.0,30.0,30.00,North,5,8.0,16.0,89,0.00,,,0.00,,2013-04-18 06:12:00,
2013-04-18 01:22:00,33.0,30.0,29.98,North,0,3.0,12.0,89,0.00,,,0.00,,2013-04-18 06:22:00,
2013-04-18 01:32:00,33.0,30.0,29.98,North,0,3.0,12.0,89,0.00,,,0.00,,2013-04-18 06:32:00,
2013-04-18 01:42:00,32.0,29.0,29.96,North,358,7.0,15.0,90,0.00,,,0.00,,2013-04-18 06:42:00,
2013-04-18 01:52:00,32.0,29.0,29.96,North,358,7.0,15.0,90,0.00,,,0.00,,2013-04-18 06:52:00,
2013-04-18 02:02:00,32.0,29.0,29.96,North,358,7.0,15.0,90,0.00,,,0.00,,2013-04-18 07:02:00,
2013-04-18 02:12:00,32.0,30.0,29.93,North,4,10.0,17.0,91,0.00,,,0.00,,2013-04-18 07:12:00,
2013-04-18 02:22:00,32.0,30.0,29.93,North,4,10.0,17.0,91,0.00,,,0.00,,2013-04-18 07:22:00,
2013-04-18 02:32:00,32.0,30.0,29.93,North,4,10.0,17.0,91,0.00,,,0.00,,2013-04-18 07:32:00,
2013-04-18 02:42:00,32.0,30.0,29.90,North,1,4.0,16.0,91,0.00,,,0.00,,2013-04-18 07:42:00,
2013-04-18 02:52:00,32.0,30.0,29.90,North,1,4.0,16.0,91,0.00,,,0.00,,2013-04-18 07:52:00,
2013-04-18 03:02:00,32.0,30.0,29.90,North,1,4.0,16.0,91,0.00,,,0.00,,2013-04-18 08:02:00,
2013-04-18 03:12:00,32.0,30.0,29.89,North,0,9.0,21.0,91,0.00,,,0.00,,2013-04-18 08:12:00,
2013-04-18 03:22:00,32.0,30.0,29.89,North,0,9.0,21.0,91,0.00,,,0.00,,2013-04-18 08:22:00,
2013-04-18 03:32:00,32.0,30.0,29.89,North,0,9.0,21.0,91,0.00,,,0.00,,2013-04-18 08:32:00,
2013-04-18 03:42:00,32.0,29.0,29.91,North,0,8.0,20.0,90,0.00,,,0.00,,2013-04-18 08:42:00,
2013-04-18 03:52:00,32.0,29.0,29.91,North,0,8.0,20.0,90,0.00,,,0.00,,2013-04-18 08:52:00,
2013-04-18 04:02:00,32.0,29.0,29.91,North,0,8.0,20.0,90,0.00,,,0.00,,2013-04-18 09:02:00,
2013-04-18 04:12:00,32.0,29.0,29.88,North,0,8.0,17.0,90,0.00,,,0.00,,2013-04-18 09:12:00,
2013-04-18 04:22:00,32.0,29.0,29.88,North,0,8.0,17.0,90,0.00,,,0.00,,2013-04-18 09:22:00,
2013-04-18 04:32:00,32.0,29.0,29.88,North,0,8.0,17.0,90,0.00,,,0.00,,2013-04-18 09:32:00,
2013-04-18 04:43:00,31.0,28.0,29.88,North,0,4.0,13.0,90,0.00,,,0.00,,2013-04-18 09:43:00,
2013-04-18 04:53:00,31.0,28.0,29.88,North,0,4.0,13.0,90,0.00,,,0.00,,2013-04-18 09:53:00,
2013-04-18 05:03:00,31.0,28.0,29.88,North,0,4.0,13.0,90,0.00,,,0.00,,2013-04-18 10:03:00,
2013-04-18 05:12:00,31.0,28.0,29.88,North,0,4.0,13.0,90,0.00,,,0.00,,2013-04-18 10:12:00,
2013-04-18 05:23:00,31.0,28.0,29.88,North,0,7.0,13.0,90,0.00,,,0.00,,2013-04-18 10:23:00,
2013-04-18 05:32:00,31.0,28.0,29.88,North,0,7.0,13.0,90,0.00,,,0.00,,2013-04-18 10:32:00,
2013-04-18 05:42:00,31.0,28.0,29.88,North,0,7.0,13.0,90,0.00,,,0.00,,2013-04-18 10:42:00,
2013-04-18 05:52:00,31.0,28.0,29.89,North,0,4.0,11.0,90,0.00,,,0.00,,2013-04-18 10:52:00,
2013-04-18 06:02:00,31.0,28.0,29.89,North,0,4.0,11.0,90,0.00,,,0.00,,2013-04-18 11:02:00,
2013-04-18 06:12:00,30.0,27.0,29.86,North,0,6.0,16.0,90,0.00,,,0.00,,2013-04-18 11:12:00,
2013-04-18 06:22:00,30.0,27.0,29.86,North,0,6.0,16.0,90,0.00,,,0.00,,2013-04-18 11:22:00,
2013-04-18 06:32:00,30.0,27.0,29.86,North,0,6.0,16.0,90,0.00,,,0.00,,2013-04-18 11:32:00,
2013-04-18 06:42:00,30.0,27.0,29.86,North,0,6.0,16.0,90,0.00,,,0.00,,2013-04-18 11:42:00,
2013-04-18 06:52:00,30.0,27.0,29.83,North,0,10.0,20.0,90,0.00,,,0.00,,2013-04-18 11:52:00,
2013-04-18 07:02:00,30.0,27.0,29.83,North,0,10.0,20.0,90,0.00,,,0.00,,2013-04-18 12:02:00,
2013-04-18 07:12:00,30.0,27.0,29.83,North,0,10.0,20.0,90,0.00,,,0.00,,2013-04-18 12:12:00,
2013-04-18 07:22:00,31.0,28.0,29.83,North,0,7.0,15.0,89,0.00,,,0.00,,2013-04-18 12:22:00,
2013-04-18 07:32:00,31.0,28.0,29.83,North,0,7.0,15.0,89,0.00,,,0.00,,2013-04-18 12:32:00,
2013-04-18 07:42:00,31.0,28.0,29.83,North,0,7.0,15.0,89,0.00,,,0.00,,2013-04-18 12:42:00,
2013-04-18 07:52:00,31.0,28.0,29.83,North,0,5.0,17.0,88,0.00,,,0.00,,2013-04-18 12:52:00,
2013-04-18 08:02:00,31.0,28.0,29.83,North,0,5.0,17.0,88,0.00,,,0.00,,2013-04-18 13:02:00,
2013-04-18 08:12:00,31.0,28.0,29.84,North,0,4.0,17.0,87,0.00,,,0.00,,2013-04-18 13:12:00,
2013-04-18 08:22:00,31.0,28.0,29.84,North,0,4.0,17.0,87,0.00,,,0.00,,2013-04-18 13:22:00,
2013-04-18 08:32:00,31.0,28.0,29.84,North,0,4.0,17.0,87,0.00,,,0.00,,2013-04-18 13:32:00,
2013-04-18 08:42:00,31.0,27.0,29.82,North,0,11.0,19.0,86,0.00,,,0.00,,2013-04-18 13:42:00,
2013-04-18 08:53:00,31.0,27.0,29.82,North,0,11.0,19.0,86,0.00,,,0.00,,2013-04-18 13:53:00,
2013-04-18 09:02:00,31.0,27.0,29.82,North,0,11.0,19.0,86,0.00,,,0.00,,2013-04-18 14:02:00,
2013-04-18 09:12:00,32.0,28.0,29.78,North,0,6.0,17.0,85,0.00,,,0.00,,2013-04-18 14:12:00,
2013-04-18 09:22:00,32.0,28.0,29.78,North,0,6.0,17.0,85,0.00,,,0.00,,2013-04-18 14:22:00,
2013-04-18 09:32:00,32.0,28.0,29.78,North,0,6.0,17.0,85,0.00,,,0.00,,2013-04-18 14:32:00,
2013-04-18 09:43:00,31.0,27.0,29.75,North,0,8.0,18.0,86,0.00,,,0.00,,2013-04-18 14:43:00,
2013-04-18 09:52:00,31.0,27.0,29.75,North,0,8.0,18.0,86,0.00,,,0.00,,2013-04-18 14:52:00,
2013-04-18 10:02:00,31.0,27.0,29.75,North,0,8.0,18.0,86,0.00,,,0.00,,2013-04-18 15:02:00,
2013-04-18 10:12:00,31.0,27.0,29.75,North,0,8.0,18.0,86,0.00,,,0.00,,2013-04-18 15:12:00,
2013-04-18 10:22:00,31.0,28.0,29.75,North,0,12.0,23.0,87,0.00,,,0.00,,2013-04-18 15:22:00,
2013-04-18 10:33:00,31.0,28.0,29.75,North,0,12.0,23.0,87,0.00,,,0.00,,2013-04-18 15:33:00,
2013-04-18 10:43:00,32.0,29.0,29.73,North,0,11.0,19.0,87,0.00,,,0.00,,2013-04-18 15:43:00,
2013-04-18 10:53:00,32.0,29.0,29.73,North,0,11.0,19.0,87,0.00,,,0.00,,2013-04-18 15:53:00,
2013-04-18 11:03:00,32.0,29.0,29.73,North,0,11.0,19.0,87,0.00,,,0.00,,2013-04-18 16:03:00,
2013-04-18 11:13:00,32.0,29.0,29.74,North,0,7.0,21.0,87,0.00,,,0.00,,2013-04-18 16:13:00,
2013-04-18 11:23:00,32.0,29.0,29.74,North,0,7.0,21.0,87,0.00,,,0.00,,2013-04-18 16:23:00,
2013-04-18 11:33:00,32.0,29.0,29.74,North,0,7.0,21.0,87,0.00,,,0.00,,2013-04-18 16:33:00,
2013-04-18 11:43:00,32.0,29.0,29.74,North,0,6.0,15.0,87,0.00,,,0.00,,2013-04-18 16:43:00,
2013-04-18 11:53:00,32.0,29.0,29.74,North,0,6.0,15.0,87,0.00,,,0.00,,2013-04-18 16:53:00,
2013-04-18 12:02:00,32.0,29.0,29.74,North,0,6.0,15.0,87,0.00,,,0.00,,2013-04-18 17:02:00,
2013-04-18 12:12:00,32.0,29.0,29.72,NNW,346,4.0,12.0,89,0.00,,,0.00,,2013-04-18 17:12:00,
2013-04-18 12:22:00,32.0,29.0,29.72,NNW,346,4.0,12.0,89,0.00,,,0.00,,2013-04-18 17:22:00,
2013-04-18 12:33:00,32.0,29.0,29.72,NNW,346,4.0,12.0,89,0.00,,,0.00,,2013-04-18 17:33:00,
2013-04-18 12:43:00,31.0,28.0,29.69,North,5,9.0,16.0,90,0.00,,,0.00,,2013-04-18 17:43:00,
2013-04-18 12:52:00,31.0,28.0,29.69,North,5,9.0,16.0,90,0.00,,,0.00,,2013-04-18 17:52:00,
2013-04-18 13:02:00,31.0,28.0,29.69,North,5,9.0,16.0,90,0.00,,,0.00,,2013-04-18 18:02:00,
2013-04-18 13:12:00,31.0,29.0,29.71,NNE,13,9.0,20.0,91,0.00,,,0.00,,2013-04-18 18:12:00,
2013-04-18 13:22:00,31.0,29.0,29.71,NNE,13,9.0,20.0,91,0.00,,,0.00,,2013-04-18 18:22:00,
2013-04-18 13:32:00,31.0,29.0,29.71,NNE,13,9.0,20.0,91,0.00,,,0.00,,2013-04-18 18:32:00,
2013-04-18 13:43:00,31.0,29.0,29.70,NNW,341,3.0,14.0,92,0.00,,,0.00,,2013-04-18 18:43:00,
2013-04-18 13:52:00,31.0,29.0,29.70,NNW,341,3.0,14.0,92,0.00,,,0.00,,2013-04-18 18:52:00,
2013-04-18 14:02:00,31.0,29.0,29.70,NNW,341,3.0,14.0,92,0.00,,,0.00,,2013-04-18 19:02:00,
2013-04-18 14:12:00,31.0,29.0,29.70,NNW,341,3.0,14.0,92,0.00,,,0.00,,2013-04-18 19:12:00,
2013-04-18 14:22:00,31.0,29.0,29.67,North,354,8.0,19.0,93,0.00,,,0.00,,2013-04-18 19:22:00,
2013-04-18 14:32:00,31.0,29.0,29.67,North,354,8.0,19.0,93,0.00,,,0.00,,2013-04-18 19:32:00,
2013-04-18 14:42:00,31.0,29.0,29.67,North,354,8.0,19.0,93,0.00,,,0.00,,2013-04-18 19:42:00,
2013-04-18 14:53:00,31.0,29.0,29.69,North,0,5.0,15.0,93,0.00,,,0.00,,2013-04-18 19:53:00,
2013-04-18 15:02:00,31.0,29.0,29.69,North,0,5.0,15.0,93,0.00,,,0.00,,2013-04-18 20:02:00,
2013-04-18 15:12:00,31.0,29.0,29.67,NNW,343,4.0,19.0,93,0.00,,,0.00,,2013-04-18 20:12:00,
2013-04-18 15:22:00,31.0,29.0,29.67,NNW,343,4.0,19.0,93,0.00,,,0.00,,2013-04-18 20:22:00,
2013-04-18 15:32:00,31.0,29.0,29.67,NNW,343,4.0,19.0,93,0.00,,,0.00,,2013-04-18 20:32:00,
2013-04-18 15:42:00,31.0,29.0,29.64,North,352,6.0,16.0,94,0.00,,,0.00,,2013-04-18 20:42:00,
2013-04-18 15:52:00,31.0,29.0,29.64,North,352,6.0,16.0,94,0.00,,,0.00,,2013-04-18 20:52:00,
2013-04-18 16:02:00,31.0,29.0,29.64,North,352,6.0,16.0,94,0.00,,,0.00,,2013-04-18 21:02:00,
2013-04-18 16:12:00,31.0,29.0,29.65,NNW,343,5.0,9.0,94,0.00,,,0.00,,2013-04-18 21:12:00,
2013-04-18 16:22:00,31.0,29.0,29.65,NNW,343,5.0,9.0,94,0.00,,,0.00,,2013-04-18 21:22:00,
2013-04-18 16:32:00,31.0,29.0,29.65,NNW,343,5.0,9.0,94,0.00,,,0.00,,2013-04-18 21:32:00,
2013-04-18 16:43:00,32.0,30.0,29.64,NNW,348,3.0,10.0,94,0.00,,,0.00,,2013-04-18 21:43:00,
2013-04-18 16:53:00,32.0,30.0,29.64,NNW,348,3.0,10.0,94,0.00,,,0.00,,2013-04-18 21:53:00,
2013-04-18 17:02:00,32.0,30.0,29.64,NNW,348,3.0,10.0,94,0.00,,,0.00,,2013-04-18 22:02:00,
2013-04-18 17:13:00,32.0,30.0,29.64,NNW,340,3.0,12.0,94,0.00,,,0.00,,2013-04-18 22:13:00,
2013-04-18 17:22:00,32.0,30.0,29.64,NNW,340,3.0,12.0,94,0.00,,,0.00,,2013-04-18 22:22:00,
2013-04-18 17:32:00,32.0,30.0,29.64,NNW,340,3.0,12.0,94,0.00,,,0.00,,2013-04-18 22:32:00,
2013-04-18 17:42:00,32.0,30.0,29.62,NNW,345,4.0,11.0,94,0.00,,,0.00,,2013-04-18 22:42:00,
2013-04-18 17:52:00,32.0,30.0,29.62,NNW,345,4.0,11.0,94,0.00,,,0.00,,2013-04-18 22:52:00,
2013-04-18 18:03:00,32.0,30.0,29.62,NNW,345,4.0,11.0,94,0.00,,,0.00,,2013-04-18 23:03:00,
2013-04-18 18:11:00,32.0,31.0,29.60,North,353,6.0,13.0,95,0.00,,,0.00,,2013-04-18 23:11:00,
2013-04-18 18:21:00,32.0,31.0,29.60,North,353,6.0,13.0,95,0.00,,,0.00,,2013-04-18 23:21:00,
2013-04-18 18:32:00,32.0,31.0,29.60,North,353,6.0,13.0,95,0.00,,,0.00,,2013-04-18 23:32:00,
2013-04-18 18:42:00,32.0,31.0,29.59,NNW,336,8.0,13.0,95,0.00,,,0.00,,2013-04-18 23:42:00,
2013-04-18 18:52:00,32.0,31.0,29.59,NNW,336,8.0,13.0,95,0.00,,,0.00,,2013-04-18 23:52:00,
2013-04-18 19:01:00,32.0,31.0,29.59,NNW,336,8.0,13.0,95,0.00,,,0.00,,2013-04-19 00:01:00,
2013-04-18 19:12:00,31.0,30.0,29.60,NNW,338,6.0,14.0,95,0.00,,,0.00,,2013-04-19 00:12:00,
2013-04-18 19:21:00,31.0,30.0,29.60,NNW,338,6.0,14.0,95,0.00,,,0.00,,2013-04-19 00:21:00,
2013-04-18 19:32:00,31.0,30.0,29.60,NNW,338,6.0,14.0,95,0.00,,,0.00,,2013-04-19 00:32:00,
2013-04-18 19:42:00,31.0,30.0,29.59,NNW,343,4.0,11.0,95,0.00,,,0.00,,2013-04-19 00:42:00,
2013-04-18 19:52:00,31.0,30.0,29.59,NNW,343,4.0,11.0,95,0.00,,,0.00,,2013-04-19 00:52:00,
2013-04-18 20:01:00,31.0,30.0,29.59,NNW,343,4.0,11.0,95,0.00,,,0.00,,2013-04-19 01:01:00,
2013-04-18 20:11:00,31.0,30.0,29.59,NNW,343,4.0,11.0,95,0.00,,,0.00,,2013-04-19 01:11:00,
2013-04-18 20:21:00,31.0,30.0,29.60,NNW,327,6.0,14.0,95,0.00,,,0.00,,2013-04-19 01:21:00,
2013-04-18 20:31:00,31.0,30.0,29.60,NNW,327,6.0,14.0,95,0.00,,,0.00,,2013-04-19 01:31:00,
2013-04-18 20:42:00,31.0,30.0,29.60,NNW,327,6.0,14.0,95,0.00,,,0.00,,2013-04-19 01:42:00,
2013-04-18 20:52:00,31.0,30.0,29.61,NW,319,7.0,13.0,95,0.00,,,0.00,,2013-04-19 01:52:00,
2013-04-18 21:01:00,31.0,30.0,29.61,NW,319,7.0,13.0,95,0.00,,,0.00,,2013-04-19 02:01:00,
2013-04-18 21:11:00,31.0,30.0,29.61,NW,319,7.0,13.0,95,0.00,,,0.00,,2013-04-19 02:11:00,
2013-04-18 21:21:00,30.0,29.0,29.62,NW,316,5.0,11.0,95,0.00,,,0.00,,2013-04-19 02:21:00,
2013-04-18 21:32:00,30.0,29.0,29.62,NW,316,5.0,11.0,95,0.00,,,0.00,,2013-04-19 02:32:00,
2013-04-18 21:42:00,30.0,29.0,29.62,NNW,334,5.0,12.0,96,0.00,,,0.00,,2013-04-19 02:42:00,
2013-04-18 21:52:00,30.0,29.0,29.62,NNW,334,5.0,12.0,96,0.00,,,0.00,,2013-04-19 02:52:00,
2013-04-18 22:01:00,30.0,29.0,29.62,NNW,334,5.0,12.0,96,0.00,,,0.00,,2013-04-19 03:01:00,
2013-04-18 22:11:00,30.0,29.0,29.62,NNW,334,5.0,12.0,96,0.00,,,0.00,,2013-04-19 03:11:00,
2013-04-18 22:21:00,31.0,30.0,29.61,NW,312,7.0,14.0,96,0.00,,,0.00,,2013-04-19 03:21:00,
2013-04-18 22:32:00,31.0,30.0,29.61,NW,312,7.0,14.0,96,0.00,,,0.00,,2013-04-19 03:32:00,
2013-04-18 22:43:00,31.0,30.0,29.60,WNW,302,6.0,14.0,96,0.00,,,0.00,,2013-04-19 03:43:00,
2013-04-18 22:53:00,31.0,30.0,29.60,WNW,302,6.0,14.0,96,0.00,,,0.00,,2013-04-19 03:53:00,
2013-04-18 23:03:00,31.0,30.0,29.60,WNW,302,6.0,14.0,96,0.00,,,0.00,,2013-04-19 04:03:00,
2013-04-18 23:13:00,31.0,30.0,29.59,NW,315,6.0,11.0,96,0.00,,,0.00,,2013-04-19 04:13:00,
2013-04-18 23:23:00,31.0,30.0,29.59,NW,315,6.0,11.0,96,0.00,,,0.00,,2013-04-19 04:23:00,
2013-04-18 23:33:00,31.0,30.0,29.59,NW,315,6.0,11.0,96,0.00,,,0.00,,2013-04-19 04:33:00,
2013-04-18 23:43:00,30.0,29.0,29.57,NW,317,7.0,12.0,96,0.00,,,0.00,,2013-04-19 04:43:00,
2013-04-18 23:52:00,30.0,29.0,29.57,NW,317,7.0,12.0,96,0.00,,,0.00,,2013-04-19 04:52:00,